Location: Unspecified
(0.0000°N, 0.0000°E)
Time: 15:02:56
(UTC+00:00)

Amateur Radio Satellites - All Passes

Search period start: 23 July 2016 14:32
Search period end: 24 July 2016 14:32
Location: Unspecified, 0.0000°N, 0.0000°E

Satellite Date Start Highest point End Downlink Frequencies (MHz)
Time Altitude Azimuth
BEESAT 23 Jul 14:37:40 14:41:54 33° 282° (WNW) 14:46:10 436.000
Gurwin Techsat 1B 23 Jul 14:45:55 14:49:29 18° 257° (WSW) 14:53:03 435.225
ITUPSAT 1 23 Jul 14:58:38 15:01:56 19° 283° (WNW) 15:05:16 437.325
JUGNU 23 Jul 15:09:13 15:11:25 12° 188° (S) 15:13:39 437.505
STARS 23 Jul 15:12:31 15:15:29 18° 103° (ESE) 15:18:26 437.465
SRMSAT 23 Jul 15:24:48 15:29:42 26° 197° (SSW) 15:34:36 437.500
ITAMSAT 1 23 Jul 15:25:58 15:30:04 23° 257° (WSW) 15:34:09 435.822/435.867
DANDE 23 Jul 15:36:30 15:39:26 41° 87° (E) 15:43:11 436.750
Cosmos 2499 23 Jul 15:55:01 16:03:11 51° 273° (W) 16:11:41 435.465 / 435.565
CUSAT 1 23 Jul 15:56:24 15:59:29 20° 258° (WSW) 16:03:12 437.405
KKS-1 23 Jul 15:56:27 16:00:40 41° 282° (WNW) 16:04:54 437.445
HORYU 2 23 Jul 15:57:39 16:01:12 23° 78° (ENE) 16:04:45 437.375
MOZHAYETS 4 23 Jul 15:58:22 16:02:34 38° 282° (WNW) 16:06:48
AO-7 23 Jul 16:02:35 16:10:31 49° 254° (WSW) 16:18:28 29.400- 29.500
GONETS M04 23 Jul 16:03:28 16:10:41 30° 273° (W) 16:17:55
RS-15 23 Jul 16:47:16 16:58:43 46° 69° (ENE) 17:09:40 29.354- 29.394
STARS 23 Jul 16:48:20 16:51:34 20° 282° (WNW) 16:54:48 437.465
CUBESAT XI-V 23 Jul 17:05:13 17:09:49 75° 281° (WNW) 17:14:28 437.345
NOAA 15 23 Jul 17:06:44 17:11:14 29° 77° (ENE) 17:15:42 137.62
SRMSAT 23 Jul 17:16:58 17:19:36 13° 189° (S) 17:22:14 437.500
BEESAT 2 23 Jul 17:19:16 17:22:28 24° 112° (ESE) 17:25:40 435.950
BEESAT 3 23 Jul 17:21:25 17:25:16 66° 111° (ESE) 17:29:07 437.485
HORYU 2 23 Jul 17:34:56 17:37:29 15° 257° (WSW) 17:40:04 437.375
GOMX 1 23 Jul 17:41:25 17:45:13 31° 79° (E) 17:48:53 467.674
Cubesat XI-IV 23 Jul 17:45:49 17:51:06 59° 77° (ENE) 17:56:23 437.490
BRITE-PL 23 Jul 17:54:15 17:58:44 50° 258° (WSW) 18:02:55 437.365/2234.400
DOVE 4 23 Jul 17:57:28 18:00:12 17° 78° (ENE) 18:02:56 437.250
NOAA 18 23 Jul 18:09:53 18:15:22 73° 257° (WSW) 18:20:50 137.9125
CUTE-I 23 Jul 18:10:50 18:16:11 70° 257° (WSW) 18:21:31 437.470
PCSat 23 Jul 18:18:08 18:23:32 84° 109° (ESE) 18:28:57 145.827
LilacSat-2 23 Jul 18:18:12 18:21:45 38° 259° (WSW) 18:25:19 437.200
HO-68 23 Jul 18:25:16 18:29:01 15° 75° (ENE) 18:32:45 435.675
STRAND 1 23 Jul 18:26:22 18:30:58 35° 103° (ESE) 18:35:35 437.568
ISS 23 Jul 18:36:37 18:38:02 12° 126° (SE) 18:39:26 145.825
CINEMA 3 23 Jul 18:41:13 18:43:22 14° 78° (ENE) 18:45:32 145.822/145.860
NOAA 15 23 Jul 18:47:14 18:50:43 18° 257° (WSW) 18:54:11 137.62
JUGNU 23 Jul 18:48:22 18:51:43 15° 168° (SSE) 18:55:05 437.505
BEESAT 2 23 Jul 18:58:58 19:00:03 11° 292° (WNW) 19:01:07 435.950
RS-15 23 Jul 19:00:21 19:10:41 34° 249° (WSW) 19:20:43 29.354- 29.394
SEEDS 23 Jul 19:01:37 19:03:49 14° 78° (ENE) 19:05:59 437.485
SO-50 23 Jul 19:18:04 19:22:23 56° 249° (WSW) 19:26:41 436.795
COMPASS 1 23 Jul 19:21:02 19:23:44 17° 78° (ENE) 19:26:25 437.405
CANX-2 23 Jul 19:33:35 19:37:54 82° 77° (ENE) 19:42:11 2200.000
DOVE 4 23 Jul 19:35:04 19:37:39 16° 258° (WSW) 19:40:15 437.250
Cosmos 2491 23 Jul 19:37:58 19:41:45 13° 93° (E) 19:45:30 435.465 / 435.565
O/OREOS (USA 219) 23 Jul 19:40:46 19:45:14 70° 105° (ESE) 19:49:41 437.305
CUTE 1.7 + AOD 2 23 Jul 19:47:54 19:52:11 73° 259° (WSW) 19:56:27 437.475
AAUSAT CUBESAT 2 23 Jul 19:52:31 19:56:22 36° 79° (ENE) 20:00:12 437.432
UWE-3 23 Jul 20:02:39 20:06:16 26° 78° (ENE) 20:09:57 435.000/436.395/437.385
STRAND 1 23 Jul 20:07:30 20:09:52 13° 283° (WNW) 20:12:14 437.568
HO-68 23 Jul 20:09:24 20:16:22 57° 255° (WSW) 20:23:22 435.675
ISS 23 Jul 20:11:51 20:14:16 19° 306° (NW) 20:16:40 145.825
ZACube-1 23 Jul 20:13:19 20:16:36 21° 78° (ENE) 20:19:56 437.345
FUNcube-1 23 Jul 20:14:53 20:18:06 20° 78° (ENE) 20:21:21 145.935
CUBEBUG 2 23 Jul 20:14:59 20:19:15 67° 78° (ENE) 20:23:39 437.445
CINEMA 3 23 Jul 20:16:59 20:20:14 22° 259° (W) 20:23:33 145.822/145.860
PRISM 23 Jul 20:19:13 20:23:19 88° 282° (WNW) 20:27:29 437.425
AIST 2 23 Jul 20:20:46 20:24:39 43° 292° (WNW) 20:28:31 435.215
SEEDS 23 Jul 20:35:52 20:39:14 23° 258° (WSW) 20:42:36 437.485
JUGNU 23 Jul 20:35:58 20:41:18 33° 161° (SSE) 20:46:38 437.505
YUBILEINY 23 Jul 20:36:18 20:44:28 43° 87° (E) 20:52:35 435.215
AUBIESAT-1 23 Jul 20:47:09 20:48:18 11° 73° (ENE) 20:49:27 437.475
DELFI C3 23 Jul 20:51:30 20:54:50 25° 79° (ENE) 20:58:08 145.870
COMPASS 1 23 Jul 20:56:04 20:59:02 19° 258° (WSW) 21:01:58 437.405
SRMSAT 23 Jul 20:57:05 21:00:15 14° 169° (SSE) 21:03:26 437.500
Oscar 11 23 Jul 21:02:19 21:06:39 69° 258° (WSW) 21:10:58 145.826/435.025
Cosmos 2504 23 Jul 21:12:29 21:16:34 15° 85° (E) 21:20:32 435.465 / 435.565
Cosmos 2491 23 Jul 21:29:32 21:38:13 67° 273° (W) 21:46:50 435.465 / 435.565
TIGRISAT 23 Jul 21:30:16 21:34:13 30° 101° (ESE) 21:38:06 435.000
UWE-3 23 Jul 21:40:28 21:42:28 13° 259° (WSW) 21:44:30 435.000/436.395/437.385
UNISAT 6 23 Jul 21:44:45 21:49:09 54° 102° (ESE) 21:53:29 437.425
M-CUBED/EXP-1 PRIME 23 Jul 21:49:43 21:52:46 35° 255° (WSW) 21:55:55 437.505
ZACube-1 23 Jul 21:49:55 21:52:37 16° 259° (WSW) 21:55:22 437.345
FUNcube-1 23 Jul 21:51:17 21:54:04 17° 259° (W) 21:56:54 145.935
HUMSAT D 23 Jul 22:03:47 22:08:01 68° 259° (W) 22:12:16 437.325/437.525
NANOSAT C BR1 23 Jul 22:16:09 22:17:21 11° 102° (ESE) 22:18:33 145.865
AUBIESAT-1 23 Jul 22:20:26 22:22:32 16° 255° (WSW) 22:24:41 437.475
DUCHIFAT 1 23 Jul 22:21:53 22:23:43 13° 102° (ESE) 22:25:33 145.980
CUBEBUG 1 23 Jul 22:23:02 22:24:13 11° 78° (ENE) 22:25:24 437.445
ANTELSAT 23 Jul 22:23:30 22:27:46 41° 282° (WNW) 22:31:56 437.575/2403.000
JUGNU 23 Jul 22:24:25 22:30:28 87° 158° (SSE) 22:36:28 437.505
DELFI C3 23 Jul 22:28:27 22:29:24 11° 258° (WSW) 22:30:22 145.870
QB50P1 23 Jul 22:33:53 22:37:15 23° 102° (ESE) 22:40:37 145.935-145.965
YUBILEINY 23 Jul 22:34:17 22:40:51 24° 267° (W) 22:47:27 435.215
POPSAT HIP 1 23 Jul 22:39:41 22:43:18 27° 102° (ESE) 22:46:55 437.405
SRMSAT 23 Jul 22:44:50 22:50:03 30° 161° (SSE) 22:55:14 437.500
AISAT 23 Jul 22:52:27 22:56:13 28° 78° (ENE) 22:59:58 437.250
BUGSAT 1 23 Jul 22:53:48 22:55:42 13° 102° (ESE) 22:57:36 437.445
JAS-2 23 Jul 22:57:46 23:00:45 14° 107° (ESE) 23:03:52 435.910
QB50P2 23 Jul 22:58:55 23:03:06 59° 101° (ESE) 23:07:18 145.880/145.840
POLYITAN 1 23 Jul 23:01:33 23:05:45 61° 101° (E) 23:09:58 437.675
Cosmos 2504 23 Jul 23:02:24 23:09:41 49° 267° (W) 23:16:38 435.465 / 435.565
DX 1 23 Jul 23:06:55 23:10:37 28° 78° (ENE) 23:14:19 434.975-435.025
TIGRISAT 23 Jul 23:09:08 23:10:36 11° 283° (WNW) 23:12:04 435.000
ESTCUBE 1 23 Jul 23:09:22 23:13:55 83° 259° (W) 23:18:25 437.505/2401.250
50 SAT 23 Jul 23:21:02 23:24:45 85° 81° (E) 23:28:27 437.505
UKube-1 23 Jul 23:28:06 23:32:10 42° 78° (ENE) 23:36:13 .
VELOX 1 23 Jul 23:43:51 23:48:09 53° 258° (WSW) 23:52:24 145.980
NANOSAT C BR1 23 Jul 23:49:10 23:52:48 28° 282° (WNW) 23:56:27 145.865
DUCHIFAT 1 23 Jul 23:55:40 23:59:08 25° 282° (WNW) 00:02:36 145.980
CUBEBUG 1 23 Jul 23:56:30 00:00:14 29° 258° (WSW) 00:03:58 437.445
SPROUT 24 Jul 00:09:21 00:13:33 61° 259° (WSW) 00:17:44 437.525
QB50P1 24 Jul 00:10:34 00:12:46 14° 282° (WNW) 00:14:57 145.935-145.965
JUGNU 24 Jul 00:14:11 00:19:35 35° 341° (NNW) 00:24:58 437.505
POPSAT HIP 1 24 Jul 00:17:21 00:18:48 12° 282° (WNW) 00:20:15 437.405
AIST 1 24 Jul 00:26:45 00:30:48 38° 86° (E) 00:34:54
BUGSAT 1 24 Jul 00:27:20 00:30:48 25° 282° (WNW) 00:34:16 437.445
AISAT 24 Jul 00:30:49 00:32:24 12° 257° (WSW) 00:33:59 437.250
SRMSAT 24 Jul 00:33:22 00:39:22 81° 159° (SSE) 00:45:19 437.500
JAS-2 24 Jul 00:39:50 00:45:16 46° 281° (W) 00:51:24 435.910
DX 1 24 Jul 00:45:05 00:46:32 11° 257° (WSW) 00:47:59 434.975-435.025
AO-85 24 Jul 00:52:36 00:56:26 65° 249° (WSW) 01:00:13 145.980
Oscar 19 24 Jul 00:55:09 01:00:16 63° 102° (ESE) 01:05:25 437.125/150
SWISSCUBE 24 Jul 01:01:59 01:04:30 14° 77° (ENE) 01:07:00 437.505
TISAT 1 24 Jul 01:20:00 01:23:50 36° 258° (WSW) 01:27:40 437.305
BEESAT 24 Jul 01:22:31 01:26:20 24° 78° (ENE) 01:30:08 436.000
ITUPSAT 1 24 Jul 01:42:10 01:46:43 42° 78° (ENE) 01:51:14 437.325
PHONESAT 2.4 24 Jul 01:42:54 01:45:21 22° 43° (NE) 01:47:49 2401.200-2431.200
Gurwin Techsat 1B 24 Jul 01:42:56 01:48:14 83° 103° (ESE) 01:53:34 435.225
JUGNU 24 Jul 02:05:38 02:09:06 16° 347° (NNW) 02:12:34 437.505
Cosmos 2499 24 Jul 02:15:28 02:20:52 22° 86° (E) 02:26:06 435.465 / 435.565
ITAMSAT 1 24 Jul 02:20:45 02:25:48 57° 103° (ESE) 02:30:52 435.822/435.867
SRMSAT 24 Jul 02:23:10 02:28:36 37° 340° (NNW) 02:34:02 437.500
KKS-1 24 Jul 02:35:02 02:36:52 12° 78° (ENE) 02:38:43 437.445
AO-7 24 Jul 02:37:02 02:44:29 37° 106° (ESE) 02:51:53 29.400- 29.500
SWISSCUBE 24 Jul 02:37:52 02:42:01 29° 257° (WSW) 02:46:09 437.505
DANDE 24 Jul 02:38:32 02:44:09 21° 99° (E) 02:49:05 436.750
GONETS M04 24 Jul 02:39:02 02:47:46 67° 87° (E) 02:56:33
MOZHAYETS 4 24 Jul 02:39:28 02:42:26 17° 78° (ENE) 02:45:21
CUSAT 1 24 Jul 02:53:18 03:00:06 71° 96° (E) 03:05:18 437.405
BEESAT 24 Jul 03:00:40 03:03:50 18° 257° (WSW) 03:07:00 436.000
PHONESAT 2.4 24 Jul 03:19:58 03:21:44 14° 222° (SW) 03:23:30 2401.200-2431.200
STARS 24 Jul 03:22:50 03:26:22 24° 78° (ENE) 03:29:53 437.465
Cosmos 2499 24 Jul 04:07:16 04:13:39 33° 267° (W) 04:19:51 435.465 / 435.565
KKS-1 24 Jul 04:09:25 04:13:10 28° 258° (WSW) 04:16:55 437.445
HORYU 2 24 Jul 04:09:36 04:13:38 34° 102° (ESE) 04:17:39 437.375
SRMSAT 24 Jul 04:14:37 04:18:14 16° 347° (NNW) 04:21:49 437.500
MOZHAYETS 4 24 Jul 04:15:37 04:19:19 23° 258° (WSW) 04:22:59
DANDE 24 Jul 04:19:25 04:26:54 44° 272° (W) 04:33:07 436.750
AO-7 24 Jul 04:29:59 04:36:52 30° 287° (WNW) 04:43:47 29.400- 29.500
RS-15 24 Jul 04:30:06 04:39:45 36° 111° (ESE) 04:49:39 29.354- 29.394
GONETS M04 24 Jul 04:40:16 04:44:12 14° 267° (W) 04:48:11
BRITE-PL 24 Jul 04:42:21 04:46:10 20° 103° (ESE) 04:50:07 437.365/2234.400
Cubesat XI-IV 24 Jul 04:49:46 04:50:50 11° 103° (ESE) 04:51:55 437.490
STARS 24 Jul 05:00:13 05:02:27 14° 257° (WSW) 05:04:42 437.465
CUTE-I 24 Jul 05:11:39 05:15:43 22° 103° (ESE) 05:19:46 437.470
BEESAT 2 24 Jul 05:12:41 05:16:01 26° 68° (ENE) 05:19:20 435.950
PCSat 24 Jul 05:13:06 05:16:33 17° 70° (ENE) 05:20:00 145.827
BEESAT 3 24 Jul 05:13:46 05:17:40 68° 68° (ENE) 05:21:34 437.485
NOAA 18 24 Jul 05:14:57 05:19:24 25° 103° (ESE) 05:23:51 137.9125
CUBESAT XI-V 24 Jul 05:23:52 05:28:16 41° 258° (WSW) 05:32:38 437.345
NOAA 15 24 Jul 05:43:11 05:48:27 82° 103° (ESE) 05:53:46 137.62
JUGNU 24 Jul 05:47:32 05:49:20 11° 8° (N) 05:51:09 437.505
SO-50 24 Jul 05:52:17 05:54:44 14° 112° (ESE) 05:57:10 436.795
GOMX 1 24 Jul 06:02:57 06:08:17 76° 102° (ESE) 06:13:47 467.674
LilacSat-2 24 Jul 06:12:37 06:16:18 46° 281° (W) 06:19:59 437.200
DOVE 4 24 Jul 06:15:46 06:20:45 42° 102° (ESE) 06:25:44 437.250
HO-68 24 Jul 06:18:12 06:20:36 12° 106° (ESE) 06:22:59 435.675
BRITE-PL 24 Jul 06:19:54 06:24:18 28° 281° (W) 06:28:56 437.365/2234.400
Cubesat XI-IV 24 Jul 06:25:32 06:30:37 47° 282° (WNW) 06:35:42 437.490
RS-15 24 Jul 06:41:42 06:51:37 40° 292° (WNW) 07:02:02 29.354- 29.394
CUTE-I 24 Jul 06:51:20 06:55:29 23° 283° (WNW) 06:59:37 437.470
BEESAT 2 24 Jul 06:52:50 06:53:35 10° 248° (WSW) 06:54:21 435.950
PCSat 24 Jul 06:54:58 06:59:40 31° 251° (WSW) 07:04:23 145.827
NOAA 18 24 Jul 06:55:37 06:59:47 22° 283° (WNW) 07:03:57 137.9125
CINEMA 3 24 Jul 06:55:48 07:00:00 28° 101° (E) 07:04:06 145.822/145.860
STRAND 1 24 Jul 06:58:27 07:03:38 89° 256° (WSW) 07:08:47 437.568
SEEDS 24 Jul 07:06:29 07:09:01 16° 102° (ESE) 07:11:34 437.485
COMPASS 1 24 Jul 07:24:58 07:27:51 19° 102° (ESE) 07:30:45 437.405
SO-50 24 Jul 07:30:39 07:34:58 32° 292° (WNW) 07:39:18 436.795
JUGNU 24 Jul 07:34:42 07:39:08 22° 16° (NNE) 07:43:33 437.505
CANX-2 24 Jul 07:40:07 07:44:18 79° 282° (WNW) 07:48:30 2200.000
ISS 24 Jul 07:44:50 07:47:46 31° 235° (SW) 07:50:43 145.825
O/OREOS (USA 219) 24 Jul 07:51:34 07:56:05 67° 256° (WSW) 08:00:39 437.305
CUTE 1.7 + AOD 2 24 Jul 07:54:22 07:58:28 58° 281° (WNW) 08:02:36 437.475
DOVE 4 24 Jul 07:55:57 07:58:08 13° 282° (WNW) 08:00:18 437.250
AAUSAT CUBESAT 2 24 Jul 07:56:03 07:59:54 40° 102° (ESE) 08:03:46 437.432
SRMSAT 24 Jul 07:57:07 07:58:46 11° 7° (N) 08:00:25 437.500
HO-68 24 Jul 08:00:50 08:07:55 67° 284° (WNW) 08:15:02 435.675
Cosmos 2491 24 Jul 08:08:00 08:15:21 30° 87° (E) 08:22:42 435.465 / 435.565
UWE-3 24 Jul 08:13:37 08:17:44 37° 101° (E) 08:21:46 435.000/436.395/437.385
AIST 2 24 Jul 08:19:09 08:22:57 35° 248° (WSW) 08:26:45 435.215
PRISM 24 Jul 08:22:10 08:26:17 80° 257° (WSW) 08:30:22 437.425
ZACube-1 24 Jul 08:22:56 08:26:41 28° 101° (E) 08:30:22 437.345
FUNcube-1 24 Jul 08:24:10 08:27:50 27° 101° (E) 08:31:26 145.935
CUBEBUG 2 24 Jul 08:27:27 08:32:03 80° 282° (WNW) 08:36:30 437.445
CINEMA 3 24 Jul 08:33:48 08:36:49 16° 283° (WNW) 08:39:49 145.822/145.860
SEEDS 24 Jul 08:41:32 08:44:27 19° 281° (WNW) 08:47:23 437.485
AUBIESAT-1 24 Jul 08:45:08 08:48:02 17° 105° (ESE) 08:50:52 437.475
DELFI C3 24 Jul 08:50:23 08:53:33 23° 102° (ESE) 08:56:44 145.870
COMPASS 1 24 Jul 09:00:39 09:03:09 16° 281° (WNW) 09:05:39 437.405
ANTELSAT 24 Jul 09:02:18 09:04:19 13° 77° (ENE) 09:06:22 437.575/2403.000
YUBILEINY 24 Jul 09:09:09 09:17:54 82° 93° (E) 09:26:40 435.215
Oscar 11 24 Jul 09:11:08 09:15:17 50° 282° (WNW) 09:19:27 145.826/435.025
Cosmos 2504 24 Jul 09:20:35 09:27:09 25° 92° (E) 09:33:55 435.465 / 435.565
JUGNU 24 Jul 09:22:40 09:28:23 55° 21° (NNE) 09:34:06 437.505
TIGRISAT 24 Jul 09:42:46 09:47:01 46° 78° (ENE) 09:51:21 435.000
SRMSAT 24 Jul 09:44:22 09:48:45 21° 16° (NNE) 09:53:08 437.500
M-CUBED/EXP-1 PRIME 24 Jul 09:48:31 09:53:01 47° 286° (WNW) 09:57:21 437.505
UNISAT 6 24 Jul 09:57:41 10:02:08 84° 78° (ENE) 10:06:40 437.425
ZACube-1 24 Jul 10:01:17 10:02:40 11° 282° (WNW) 10:04:03 437.345
FUNcube-1 24 Jul 10:02:10 10:03:47 12° 282° (WNW) 10:05:24 145.935
Cosmos 2491 24 Jul 10:04:07 10:11:46 35° 267° (W) 10:19:32 435.465 / 435.565
HUMSAT D 24 Jul 10:08:50 10:12:51 55° 282° (WNW) 10:16:52 437.325/437.525
AUBIESAT-1 24 Jul 10:18:33 10:22:13 24° 286° (WNW) 10:25:49 437.475
NANOSAT C BR1 24 Jul 10:21:08 10:23:09 13° 78° (ENE) 10:25:09 145.865
DUCHIFAT 1 24 Jul 10:26:51 10:29:13 15° 78° (ENE) 10:31:36 145.980
DELFI C3 24 Jul 10:27:09 10:28:09 11° 281° (WNW) 10:29:09 145.870
CUBEBUG 1 24 Jul 10:31:28 10:34:12 16° 102° (ESE) 10:36:56 437.445
ANTELSAT 24 Jul 10:36:58 10:40:44 28° 259° (WSW) 10:44:35 437.575/2403.000
QB50P1 24 Jul 10:39:49 10:43:24 27° 78° (ENE) 10:46:59 145.935-145.965
POPSAT HIP 1 24 Jul 10:45:42 10:49:30 33° 78° (ENE) 10:53:16 437.405
BUGSAT 1 24 Jul 10:56:55 10:58:48 13° 78° (ENE) 11:00:39 437.445
AISAT 24 Jul 11:03:36 11:07:49 42° 102° (ESE) 11:12:02 437.250
QB50P2 24 Jul 11:05:15 11:09:28 75° 77° (ENE) 11:13:40 145.880/145.840
POLYITAN 1 24 Jul 11:07:54 11:12:06 77° 78° (ENE) 11:16:19 437.675
50 SAT 24 Jul 11:10:48 11:14:18 53° 101° (ESE) 11:17:49 437.505
JUGNU 24 Jul 11:11:43 11:17:24 53° 201° (SSW) 11:23:07 437.505
Cosmos 2504 24 Jul 11:12:22 11:20:05 42° 274° (W) 11:28:12 435.465 / 435.565
DX 1 24 Jul 11:16:05 11:20:10 39° 102° (ESE) 11:24:15 434.975-435.025
ESTCUBE 1 24 Jul 11:23:33 11:27:53 52° 282° (WNW) 11:32:16 437.505/2401.250
AO-85 24 Jul 11:26:03 11:28:44 14° 112° (ESE) 11:31:25 145.980
SRMSAT 24 Jul 11:32:27 11:38:12 52° 21° (NNE) 11:44:01 437.500
UKube-1 24 Jul 11:36:22 11:40:36 57° 102° (ESE) 11:44:52 .
NANOSAT C BR1 24 Jul 11:55:17 11:58:37 23° 258° (WSW) 12:01:56 145.865
VELOX 1 24 Jul 11:55:34 11:59:38 37° 282° (WNW) 12:03:46 145.980
DUCHIFAT 1 24 Jul 12:01:32 12:04:38 20° 258° (WSW) 12:07:46 145.980
CUBEBUG 1 24 Jul 12:06:49 12:10:12 22° 282° (WNW) 12:13:36 437.445
JAS-2 24 Jul 12:12:46 12:20:05 85° 257° (WSW) 12:26:31 435.910
SPROUT 24 Jul 12:16:45 12:20:53 47° 282° (WNW) 12:25:02 437.525
QB50P1 24 Jul 12:17:47 12:18:54 11° 258° (WSW) 12:20:01 145.935-145.965
BUGSAT 1 24 Jul 12:30:52 12:33:54 21° 258° (WSW) 12:36:57 437.445
AIST 1 24 Jul 12:33:21 12:37:33 55° 94° (E) 12:41:41
Gurwin Techsat 1B 24 Jul 12:44:05 12:47:06 15° 77° (ENE) 12:50:06 435.225
JUGNU 24 Jul 13:02:18 13:06:41 21° 196° (SSW) 13:11:05 437.505
AO-85 24 Jul 13:03:58 13:08:59 41° 292° (WNW) 13:14:04 145.980
PHONESAT 2.4 24 Jul 13:11:02 13:12:39 13° 138° (SE) 13:14:15 2401.200-2431.200
GONETS M04 24 Jul 13:21:12 13:25:04 14° 93° (E) 13:28:55
SRMSAT 24 Jul 13:21:35 13:27:26 57° 201° (SSW) 13:33:20 437.500
SWISSCUBE 24 Jul 13:22:24 13:26:22 27° 103° (ESE) 13:30:21 437.505
TISAT 1 24 Jul 13:25:19 13:29:04 31° 282° (WNW) 13:32:50 437.305
Oscar 19 24 Jul 13:29:07 13:34:04 49° 257° (WSW) 13:38:59 437.125/150
BEESAT 24 Jul 13:43:38 13:48:09 45° 103° (ESE) 13:52:41 436.000
ITUPSAT 1 24 Jul 14:04:10 14:08:55 85° 101° (ESE) 14:13:41 437.325
Gurwin Techsat 1B 24 Jul 14:22:02 14:26:47 34° 257° (WSW) 14:31:31 435.225
